Time,TemperatureF,DewpointF,PressureIn,WindDirection,WindDirectionDegrees,WindSpeedMPH,WindSpeedGustMPH,Humidity,HourlyPrecipIn,Conditions,Clouds,dailyrainin,SoftwareType,DateUTC
2013-04-03 00:01:00,26.1,19.8,30.90,East,90,0.0,0.0,77,0.00,,,0.04,meteohub,2013-04-03 06:01:00,
2013-04-03 00:06:00,26.1,19.8,30.90,East,90,0.0,0.0,77,0.00,,,0.00,meteohub,2013-04-03 06:06:00,
2013-04-03 00:11:00,26.4,20.5,30.90,East,90,0.0,0.0,78,0.00,,,0.00,meteohub,2013-04-03 06:11:00,
2013-04-03 00:16:00,26.6,20.3,30.90,East,90,0.0,0.0,77,0.00,,,0.00,meteohub,2013-04-03 06:16:00,
2013-04-03 00:21:00,26.8,20.5,30.90,East,90,0.0,0.0,77,0.00,,,0.00,meteohub,2013-04-03 06:21:00,
2013-04-03 00:26:00,26.8,20.5,30.90,East,90,0.0,0.0,77,0.00,,,0.00,meteohub,2013-04-03 06:26:00,
2013-04-03 00:31:00,26.8,20.8,30.90,East,90,0.0,0.0,78,0.00,,,0.00,meteohub,2013-04-03 06:31:00,
2013-04-03 00:36:00,26.8,20.5,30.90,East,90,0.0,0.0,77,0.00,,,0.00,meteohub,2013-04-03 06:36:00,
2013-04-03 00:41:00,26.8,20.5,30.90,East,90,0.0,0.0,77,0.00,,,0.00,meteohub,2013-04-03 06:41:00,
2013-04-03 00:46:00,26.6,20.3,30.90,East,90,0.0,0.0,77,0.00,,,0.00,meteohub,2013-04-03 06:46:00,
2013-04-03 00:51:00,26.6,20.3,30.90,East,90,0.0,0.0,77,0.00,,,0.00,meteohub,2013-04-03 06:51:00,
2013-04-03 00:56:00,26.6,20.3,30.90,East,90,0.0,0.0,77,0.00,,,0.00,meteohub,2013-04-03 06:56:00,
2013-04-03 01:01:00,26.4,20.5,30.90,East,90,0.0,0.0,78,0.00,,,0.00,meteohub,2013-04-03 07:01:00,
2013-04-03 01:07:00,26.4,20.5,30.90,East,90,0.0,0.0,78,0.00,,,0.00,meteohub,2013-04-03 07:07:00,
2013-04-03 01:12:00,26.4,20.5,30.90,East,90,0.0,0.0,78,0.00,,,0.00,meteohub,2013-04-03 07:12:00,
2013-04-03 01:17:00,26.4,20.1,30.90,East,90,0.0,0.0,77,0.00,,,0.00,meteohub,2013-04-03 07:17:00,
2013-04-03 01:22:00,26.4,20.1,30.90,East,90,0.0,0.0,77,0.00,,,0.00,meteohub,2013-04-03 07:22:00,
2013-04-03 01:27:00,26.4,20.1,30.90,East,90,0.0,0.0,77,0.00,,,0.00,meteohub,2013-04-03 07:27:00,
2013-04-03 01:32:00,26.4,20.1,30.90,East,90,0.0,0.0,77,0.00,,,0.00,meteohub,2013-04-03 07:32:00,
2013-04-03 01:37:00,26.4,20.5,30.90,East,90,0.0,0.0,78,0.00,,,0.00,meteohub,2013-04-03 07:37:00,
2013-04-03 01:42:00,26.4,20.5,30.90,East,90,0.0,0.0,78,0.00,,,0.00,meteohub,2013-04-03 07:42:00,
2013-04-03 01:47:00,26.4,20.5,30.90,East,90,0.0,0.0,78,0.00,,,0.00,meteohub,2013-04-03 07:47:00,
2013-04-03 01:52:00,26.6,20.3,30.90,East,90,0.0,0.0,77,0.00,,,0.00,meteohub,2013-04-03 07:52:00,
2013-04-03 01:57:00,26.6,20.3,30.90,East,90,0.0,0.0,77,0.00,,,0.00,meteohub,2013-04-03 07:57:00,
2013-04-03 02:04:00,26.6,20.3,30.90,East,90,0.0,0.0,77,0.00,,,0.00,meteohub,2013-04-03 08:04:00,
2013-04-03 02:09:00,26.6,20.3,30.90,East,90,0.0,0.0,77,0.00,,,0.00,meteohub,2013-04-03 08:09:00,
2013-04-03 02:14:00,26.6,20.3,30.90,East,90,0.0,0.0,77,0.00,,,0.00,meteohub,2013-04-03 08:14:00,
2013-04-03 02:19:00,26.6,20.3,30.90,East,90,0.0,0.0,77,0.00,,,0.00,meteohub,2013-04-03 08:19:00,
2013-04-03 02:24:00,26.6,20.3,30.90,East,90,0.0,0.0,77,0.00,,,0.00,meteohub,2013-04-03 08:24:00,
2013-04-03 02:29:00,26.4,20.1,30.90,East,90,0.0,0.0,77,0.00,,,0.00,meteohub,2013-04-03 08:29:00,
2013-04-03 02:34:00,26.4,20.1,30.90,East,90,0.0,0.0,77,0.00,,,0.00,meteohub,2013-04-03 08:34:00,
2013-04-03 02:39:00,26.4,20.1,30.90,East,90,0.0,0.0,77,0.00,,,0.00,meteohub,2013-04-03 08:39:00,
2013-04-03 02:44:00,26.4,19.9,30.90,East,90,0.0,0.0,76,0.00,,,0.00,meteohub,2013-04-03 08:44:00,
2013-04-03 02:49:00,26.4,19.9,30.90,East,90,0.0,0.0,76,0.00,,,0.00,meteohub,2013-04-03 08:49:00,
2013-04-03 02:54:00,26.4,19.9,30.91,East,90,0.0,0.0,76,0.00,,,0.00,meteohub,2013-04-03 08:54:00,
2013-04-03 02:59:00,26.4,19.9,30.90,East,90,0.0,0.0,76,0.00,,,0.00,meteohub,2013-04-03 08:59:00,
2013-04-03 03:07:00,26.4,19.9,30.91,East,90,0.0,0.0,76,0.00,,,0.00,meteohub,2013-04-03 09:07:00,
2013-04-03 03:12:00,26.4,19.9,30.91,East,90,0.0,0.0,76,0.00,,,0.00,meteohub,2013-04-03 09:12:00,
2013-04-03 03:17:00,26.4,19.9,30.91,East,90,0.0,0.0,76,0.00,,,0.00,meteohub,2013-04-03 09:17:00,
2013-04-03 03:22:00,26.4,19.6,30.90,East,90,0.0,0.0,75,0.00,,,0.00,meteohub,2013-04-03 09:22:00,
2013-04-03 03:27:00,26.4,19.6,30.91,East,90,0.0,0.0,75,0.00,,,0.00,meteohub,2013-04-03 09:27:00,
2013-04-03 03:32:00,26.2,19.4,30.91,East,90,0.0,0.0,75,0.00,,,0.00,meteohub,2013-04-03 09:32:00,
2013-04-03 03:37:00,26.2,19.4,30.91,East,90,0.0,0.0,75,0.00,,,0.00,meteohub,2013-04-03 09:37:00,
2013-04-03 03:42:00,26.1,18.9,30.92,East,90,0.0,0.0,74,0.00,,,0.00,meteohub,2013-04-03 09:42:00,
2013-04-03 03:47:00,26.1,18.9,30.92,East,90,0.0,0.0,74,0.00,,,0.00,meteohub,2013-04-03 09:47:00,
2013-04-03 03:52:00,25.9,18.7,30.91,East,90,0.0,0.0,74,0.00,,,0.00,meteohub,2013-04-03 09:52:00,
2013-04-03 03:57:00,25.9,18.7,30.91,East,90,0.0,0.0,74,0.00,,,0.00,meteohub,2013-04-03 09:57:00,
2013-04-03 04:02:00,25.9,18.7,30.91,East,90,0.0,0.0,74,0.00,,,0.00,meteohub,2013-04-03 10:02:00,
2013-04-03 04:07:00,25.9,18.7,30.92,East,90,0.0,0.0,74,0.00,,,0.00,meteohub,2013-04-03 10:07:00,
2013-04-03 04:12:00,25.7,18.5,30.92,East,90,0.0,0.0,74,0.00,,,0.00,meteohub,2013-04-03 10:12:00,
2013-04-03 04:17:00,25.7,18.5,30.92,East,90,0.0,0.0,74,0.00,,,0.00,meteohub,2013-04-03 10:17:00,
2013-04-03 04:22:00,25.5,18.3,30.92,East,90,0.0,0.0,74,0.00,,,0.00,meteohub,2013-04-03 10:22:00,
2013-04-03 04:28:00,25.5,18.3,30.92,East,90,0.0,0.0,74,0.00,,,0.00,meteohub,2013-04-03 10:28:00,
2013-04-03 04:33:00,25.5,18.3,30.91,East,90,0.0,0.0,74,0.00,,,0.00,meteohub,2013-04-03 10:33:00,
2013-04-03 04:38:00,25.5,18.3,30.92,East,90,0.0,0.0,74,0.00,,,0.00,meteohub,2013-04-03 10:38:00,
2013-04-03 04:43:00,25.5,18.3,30.91,East,90,0.0,0.0,74,0.00,,,0.00,meteohub,2013-04-03 10:43:00,
2013-04-03 04:48:00,25.5,18.3,30.91,East,90,0.0,0.0,74,0.00,,,0.00,meteohub,2013-04-03 10:48:00,
2013-04-03 04:53:00,25.3,18.1,30.91,East,90,0.0,0.0,74,0.00,,,0.00,meteohub,2013-04-03 10:53:00,
2013-04-03 04:58:00,25.3,18.1,30.92,East,90,0.0,0.0,74,0.00,,,0.00,meteohub,2013-04-03 10:58:00,
2013-04-03 05:03:00,25.3,18.1,30.92,East,90,0.0,0.0,74,0.00,,,0.00,meteohub,2013-04-03 11:03:00,
2013-04-03 05:08:00,25.2,18.0,30.92,East,90,0.0,0.0,74,0.00,,,0.00,meteohub,2013-04-03 11:08:00,
2013-04-03 05:13:00,25.2,18.0,30.92,East,90,0.0,0.0,74,0.00,,,0.00,meteohub,2013-04-03 11:13:00,
2013-04-03 05:18:00,25.2,18.0,30.92,East,90,0.0,0.0,74,0.00,,,0.00,meteohub,2013-04-03 11:18:00,
2013-04-03 05:23:00,25.2,17.8,30.92,East,90,0.0,0.0,73,0.00,,,0.00,meteohub,2013-04-03 11:23:00,
2013-04-03 05:28:00,25.2,17.8,30.92,East,90,0.0,0.0,73,0.00,,,0.00,meteohub,2013-04-03 11:28:00,
2013-04-03 05:33:00,25.0,17.6,30.93,East,90,0.0,0.0,73,0.00,,,0.00,meteohub,2013-04-03 11:33:00,
2013-04-03 05:38:00,25.0,17.6,30.92,East,90,0.0,0.0,73,0.00,,,0.00,meteohub,2013-04-03 11:38:00,
2013-04-03 05:43:00,25.0,17.6,30.93,East,90,0.0,0.0,73,0.00,,,0.00,meteohub,2013-04-03 11:43:00,
2013-04-03 05:48:00,24.8,17.4,30.93,East,90,0.0,0.0,73,0.00,,,0.00,meteohub,2013-04-03 11:48:00,
2013-04-03 05:53:00,24.8,17.1,30.93,East,90,0.0,0.0,72,0.00,,,0.00,meteohub,2013-04-03 11:53:00,
2013-04-03 05:58:00,24.6,17.2,30.93,East,90,0.0,0.0,73,0.00,,,0.00,meteohub,2013-04-03 11:58:00,
2013-04-03 06:03:00,24.4,17.1,30.94,East,90,0.0,0.0,73,0.00,,,0.00,meteohub,2013-04-03 12:03:00,
2013-04-03 06:08:00,24.4,17.1,30.94,East,90,0.0,0.0,73,0.00,,,0.00,meteohub,2013-04-03 12:08:00,
2013-04-03 06:13:00,24.4,17.1,30.94,East,90,0.0,0.0,73,0.00,,,0.00,meteohub,2013-04-03 12:13:00,
2013-04-03 06:18:00,24.4,17.1,30.94,East,90,0.0,0.0,73,0.00,,,0.00,meteohub,2013-04-03 12:18:00,
2013-04-03 06:23:00,24.3,16.9,30.95,East,90,0.0,0.0,73,0.00,,,0.00,meteohub,2013-04-03 12:23:00,
2013-04-03 06:28:00,24.3,17.2,30.95,East,90,0.0,0.0,74,0.00,,,0.00,meteohub,2013-04-03 12:28:00,
2013-04-03 06:33:00,24.3,17.2,30.95,East,90,0.0,0.0,74,0.00,,,0.00,meteohub,2013-04-03 12:33:00,
2013-04-03 06:39:00,24.3,17.2,30.95,East,90,0.0,0.0,74,0.00,,,0.00,meteohub,2013-04-03 12:39:00,
2013-04-03 06:44:00,24.3,17.2,30.95,East,90,0.0,0.0,74,0.00,,,0.00,meteohub,2013-04-03 12:44:00,
2013-04-03 06:49:00,24.3,17.2,30.95,East,90,0.0,0.0,74,0.00,,,0.00,meteohub,2013-04-03 12:49:00,
2013-04-03 06:54:00,24.3,17.2,30.96,East,90,0.0,0.0,74,0.00,,,0.00,meteohub,2013-04-03 12:54:00,
2013-04-03 06:59:00,24.3,17.2,30.96,East,90,0.0,0.0,74,0.00,,,0.00,meteohub,2013-04-03 12:59:00,
2013-04-03 07:04:00,24.3,17.2,30.96,East,90,0.0,0.0,74,0.00,,,0.00,meteohub,2013-04-03 13:04:00,
2013-04-03 07:09:00,24.3,17.2,30.97,East,90,0.0,0.0,74,0.00,,,0.00,meteohub,2013-04-03 13:09:00,
2013-04-03 07:14:00,24.3,17.2,30.96,East,90,0.0,0.0,74,0.00,,,0.00,meteohub,2013-04-03 13:14:00,
2013-04-03 07:19:00,24.4,17.4,30.96,East,90,0.0,0.0,74,0.00,,,0.00,meteohub,2013-04-03 13:19:00,
2013-04-03 07:24:00,24.4,17.4,30.97,East,90,0.0,0.0,74,0.00,,,0.00,meteohub,2013-04-03 13:24:00,
2013-04-03 07:29:00,24.4,17.4,30.97,East,90,0.0,0.0,74,0.00,,,0.00,meteohub,2013-04-03 13:29:00,
2013-04-03 07:34:00,24.6,17.6,30.97,East,90,0.0,0.0,74,0.00,,,0.00,meteohub,2013-04-03 13:34:00,
2013-04-03 07:39:00,24.8,17.4,30.97,East,90,0.0,0.0,73,0.00,,,0.00,meteohub,2013-04-03 13:39:00,
2013-04-03 07:44:00,24.8,17.4,30.97,East,90,0.0,0.0,73,0.00,,,0.00,meteohub,2013-04-03 13:44:00,
2013-04-03 07:49:00,25.0,17.6,30.97,East,90,0.0,0.0,73,0.00,,,0.00,meteohub,2013-04-03 13:49:00,
2013-04-03 07:54:00,25.2,17.8,30.97,East,90,0.0,0.0,73,0.00,,,0.00,meteohub,2013-04-03 13:54:00,
2013-04-03 07:59:00,25.3,18.0,30.97,East,90,0.0,0.0,73,0.00,,,0.00,meteohub,2013-04-03 13:59:00,
2013-04-03 08:04:00,25.3,18.0,30.97,East,90,0.0,0.0,73,0.00,,,0.00,meteohub,2013-04-03 14:04:00,
2013-04-03 08:09:00,25.7,18.3,30.97,East,90,0.0,0.0,73,0.00,,,0.00,meteohub,2013-04-03 14:09:00,
2013-04-03 08:14:00,25.9,18.5,30.97,East,90,0.0,0.0,73,0.00,,,0.00,meteohub,2013-04-03 14:14:00,
2013-04-03 08:19:00,26.1,18.3,30.97,East,90,0.0,0.0,72,0.00,,,0.00,meteohub,2013-04-03 14:19:00,
2013-04-03 08:24:00,26.4,18.7,30.98,East,90,0.0,0.0,72,0.00,,,0.00,meteohub,2013-04-03 14:24:00,
2013-04-03 08:29:00,26.8,18.7,30.97,East,90,0.0,0.0,71,0.00,,,0.00,meteohub,2013-04-03 14:29:00,
2013-04-03 08:34:00,27.3,19.6,30.97,East,90,0.0,0.0,72,0.00,,,0.00,meteohub,2013-04-03 14:34:00,
2013-04-03 08:39:00,27.7,19.6,30.97,East,90,0.0,0.0,71,0.00,,,0.00,meteohub,2013-04-03 14:39:00,
2013-04-03 08:44:00,28.2,20.1,30.98,East,90,0.0,0.0,71,0.00,,,0.00,meteohub,2013-04-03 14:44:00,
2013-04-03 08:49:00,28.6,21.7,30.97,East,90,0.0,0.0,75,0.00,,,0.00,meteohub,2013-04-03 14:49:00,
2013-04-03 08:54:00,28.6,21.4,30.97,East,90,0.0,0.0,74,0.00,,,0.00,meteohub,2013-04-03 14:54:00,
2013-04-03 08:59:00,28.9,21.4,30.98,East,90,0.0,0.0,73,0.00,,,0.00,meteohub,2013-04-03 14:59:00,
2013-04-03 09:04:00,29.1,21.6,30.98,East,90,0.0,0.0,73,0.00,,,0.00,meteohub,2013-04-03 15:04:00,
2013-04-03 09:09:00,29.5,21.6,30.98,East,90,0.0,0.0,72,0.00,,,0.00,meteohub,2013-04-03 15:09:00,
2013-04-03 09:14:00,29.8,21.9,30.97,East,90,0.0,0.0,72,0.00,,,0.00,meteohub,2013-04-03 15:14:00,
2013-04-03 09:19:00,30.0,22.1,30.98,East,90,0.0,0.0,72,0.00,,,0.00,meteohub,2013-04-03 15:19:00,
2013-04-03 09:24:00,30.4,22.1,30.97,East,90,0.0,0.0,71,0.00,,,0.00,meteohub,2013-04-03 15:24:00,
2013-04-03 09:29:00,31.3,22.6,30.98,North,0,2.0,0.0,70,0.00,,,0.00,meteohub,2013-04-03 15:29:00,
2013-04-03 09:34:00,32.0,22.3,30.97,NW,315,1.0,2.0,67,0.00,,,0.00,meteohub,2013-04-03 15:34:00,
2013-04-03 09:39:00,33.4,23.7,30.97,SW,225,0.0,3.0,67,0.00,,,0.00,meteohub,2013-04-03 15:39:00,
2013-04-03 09:44:00,34.3,23.7,30.97,SE,135,0.0,3.0,65,0.00,,,0.00,meteohub,2013-04-03 15:44:00,
2013-04-03 09:49:00,35.1,23.7,30.98,NE,45,2.0,2.0,63,0.00,,,0.00,meteohub,2013-04-03 15:49:00,
2013-04-03 09:54:00,34.9,23.2,30.97,North,0,1.0,2.0,62,0.00,,,0.00,meteohub,2013-04-03 15:54:00,
2013-04-03 09:59:00,35.2,23.2,30.97,NE,45,0.0,2.0,61,0.01,,,0.01,meteohub,2013-04-03 15:59:00,
2013-04-03 10:04:00,35.2,23.2,30.97,NE,45,0.0,2.0,61,0.01,,,0.01,meteohub,2013-04-03 16:04:00,
2013-04-03 10:10:00,36.3,23.7,30.97,South,180,2.0,2.0,60,0.01,,,0.01,meteohub,2013-04-03 16:10:00,
2013-04-03 10:15:00,37.8,26.6,30.97,East,90,2.0,2.0,64,0.02,,,0.02,meteohub,2013-04-03 16:15:00,
2013-04-03 10:20:00,38.5,27.0,30.97,West,270,2.0,2.0,63,0.05,,,0.05,meteohub,2013-04-03 16:20:00,
2013-04-03 10:25:00,38.8,27.0,30.97,NW,315,2.0,2.0,62,0.05,,,0.05,meteohub,2013-04-03 16:25:00,
2013-04-03 10:30:00,38.8,26.1,30.98,North,0,2.0,4.0,60,0.06,,,0.06,meteohub,2013-04-03 16:30:00,
2013-04-03 10:36:00,37.9,24.1,30.98,NE,45,4.0,4.0,57,0.08,,,0.08,meteohub,2013-04-03 16:36:00,
2013-04-03 10:41:00,37.0,21.6,30.98,North,0,5.0,5.0,53,0.08,,,0.08,meteohub,2013-04-03 16:41:00,
2013-04-03 10:46:00,36.7,21.6,30.97,SW,225,8.0,8.0,54,0.09,,,0.09,meteohub,2013-04-03 16:46:00,
2013-04-03 10:51:00,36.3,21.7,30.98,North,0,8.0,9.0,55,0.09,,,0.09,meteohub,2013-04-03 16:51:00,
2013-04-03 10:56:00,36.1,21.9,30.97,East,90,7.0,9.0,56,0.09,,,0.11,meteohub,2013-04-03 16:56:00,
2013-04-03 11:01:00,36.1,21.6,30.98,North,0,6.0,10.0,55,0.09,,,0.11,meteohub,2013-04-03 17:01:00,
2013-04-03 11:06:00,36.3,22.1,30.97,North,0,5.0,11.0,56,0.11,,,0.11,meteohub,2013-04-03 17:06:00,
2013-04-03 11:11:00,36.1,21.6,30.97,North,0,8.0,11.0,55,0.09,,,0.12,meteohub,2013-04-03 17:11:00,
2013-04-03 11:16:00,36.1,21.6,30.97,North,0,11.0,11.0,55,0.08,,,0.12,meteohub,2013-04-03 17:16:00,
2013-04-03 11:21:00,36.5,23.2,30.97,NW,315,10.0,11.0,58,0.07,,,0.12,meteohub,2013-04-03 17:21:00,
2013-04-03 11:26:00,36.3,23.0,30.98,NNE,23,11.0,11.0,58,0.06,,,0.12,meteohub,2013-04-03 17:26:00,
2013-04-03 11:31:00,36.3,22.5,30.97,WNW,293,8.0,11.0,57,0.05,,,0.12,meteohub,2013-04-03 17:31:00,
2013-04-03 11:37:00,36.5,22.6,30.97,North,0,6.0,12.0,57,0.04,,,0.12,meteohub,2013-04-03 17:37:00,
2013-04-03 11:42:00,36.7,22.5,30.97,West,270,8.0,12.0,56,0.04,,,0.12,meteohub,2013-04-03 17:42:00,
2013-04-03 11:47:00,36.7,22.5,30.98,North,0,12.0,13.0,56,0.02,,,0.12,meteohub,2013-04-03 17:47:00,
2013-04-03 11:52:00,36.9,23.0,30.97,West,270,8.0,13.0,57,0.02,,,0.12,meteohub,2013-04-03 17:52:00,
2013-04-03 11:57:00,37.2,23.0,30.97,NE,45,9.0,13.0,56,0.01,,,0.12,meteohub,2013-04-03 17:57:00,
2013-04-03 12:02:00,37.2,23.0,30.97,North,0,11.0,12.0,56,0.01,,,0.12,meteohub,2013-04-03 18:02:00,
2013-04-03 12:07:00,37.8,25.9,30.97,West,270,9.0,12.0,62,0.00,,,0.12,meteohub,2013-04-03 18:07:00,
2013-04-03 12:12:00,37.8,25.2,30.98,NE,45,12.0,14.0,60,0.00,,,0.12,meteohub,2013-04-03 18:12:00,
2013-04-03 12:17:00,38.3,26.4,30.98,NW,315,13.0,14.0,62,0.00,,,0.12,meteohub,2013-04-03 18:17:00,
2013-04-03 12:23:00,38.8,26.6,30.97,WNW,293,11.0,14.0,61,0.00,,,0.12,meteohub,2013-04-03 18:23:00,
2013-04-03 12:28:00,38.8,25.3,30.97,North,0,10.0,13.0,58,0.00,,,0.12,meteohub,2013-04-03 18:28:00,
2013-04-03 12:33:00,38.8,25.3,30.97,ESE,113,8.0,15.0,58,0.00,,,0.12,meteohub,2013-04-03 18:33:00,
2013-04-03 12:38:00,39.2,25.2,30.97,North,0,8.0,15.0,57,0.00,,,0.12,meteohub,2013-04-03 18:38:00,
2013-04-03 12:43:00,39.6,25.5,30.97,North,0,6.0,15.0,57,0.00,,,0.12,meteohub,2013-04-03 18:43:00,
2013-04-03 12:48:00,39.9,25.0,30.97,WNW,293,8.0,11.0,55,0.00,,,0.12,meteohub,2013-04-03 18:48:00,
2013-04-03 12:53:00,39.9,24.6,30.97,North,0,10.0,12.0,54,0.00,,,0.12,meteohub,2013-04-03 18:53:00,
2013-04-03 12:59:00,40.3,24.4,30.97,North,0,15.0,15.0,53,0.00,,,0.12,meteohub,2013-04-03 18:59:00,
2013-04-03 13:04:00,40.3,24.4,30.97,NE,45,13.0,16.0,53,0.00,,,0.12,meteohub,2013-04-03 19:04:00,
2013-04-03 13:09:00,40.1,23.9,30.97,North,0,12.0,16.0,52,0.01,,,0.13,meteohub,2013-04-03 19:09:00,
2013-04-03 13:14:00,40.3,23.5,30.97,WNW,293,9.0,16.0,51,0.01,,,0.13,meteohub,2013-04-03 19:14:00,
2013-04-03 13:19:00,40.1,23.4,30.97,West,270,14.0,15.0,51,0.01,,,0.13,meteohub,2013-04-03 19:19:00,
2013-04-03 13:24:00,40.1,23.4,30.97,WNW,293,8.0,15.0,51,0.01,,,0.13,meteohub,2013-04-03 19:24:00,
2013-04-03 13:29:00,40.5,23.7,30.97,NE,45,11.0,15.0,51,0.01,,,0.13,meteohub,2013-04-03 19:29:00,
2013-04-03 13:34:00,40.6,23.5,30.97,North,0,13.0,15.0,50,0.01,,,0.13,meteohub,2013-04-03 19:34:00,
2013-04-03 13:39:00,41.2,23.9,30.97,North,0,10.0,13.0,50,0.01,,,0.13,meteohub,2013-04-03 19:39:00,
2013-04-03 13:44:00,41.4,23.7,30.97,NW,315,15.0,15.0,49,0.01,,,0.13,meteohub,2013-04-03 19:44:00,
2013-04-03 13:49:00,41.2,23.0,30.97,West,270,13.0,14.0,48,0.01,,,0.13,meteohub,2013-04-03 19:49:00,
2013-04-03 13:54:00,41.5,22.8,30.98,NE,45,11.0,16.0,47,0.01,,,0.13,meteohub,2013-04-03 19:54:00,
2013-04-03 13:59:00,41.7,22.5,30.97,North,0,7.0,16.0,46,0.01,,,0.13,meteohub,2013-04-03 19:59:00,
2013-04-03 14:05:00,41.7,22.5,30.97,North,0,7.0,16.0,46,0.00,,,0.13,meteohub,2013-04-03 20:05:00,
2013-04-03 14:12:00,42.4,22.1,30.97,East,90,6.0,11.0,44,0.00,,,0.13,meteohub,2013-04-03 20:12:00,
2013-04-03 14:17:00,42.4,21.0,30.97,North,0,11.0,11.0,42,0.00,,,0.13,meteohub,2013-04-03 20:17:00,
2013-04-03 14:22:00,42.6,21.2,30.98,NE,45,11.0,14.0,42,0.00,,,0.13,meteohub,2013-04-03 20:22:00,
2013-04-03 14:27:00,42.8,20.1,30.98,WNW,293,9.0,14.0,40,0.00,,,0.13,meteohub,2013-04-03 20:27:00,
2013-04-03 14:32:00,43.0,20.3,30.98,NNW,338,11.0,14.0,40,0.00,,,0.13,meteohub,2013-04-03 20:32:00,
2013-04-03 14:37:00,43.0,20.8,30.98,NE,45,8.0,14.0,41,0.00,,,0.13,meteohub,2013-04-03 20:37:00,
2013-04-03 14:42:00,43.2,21.6,30.98,NE,45,13.0,14.0,42,0.00,,,0.13,meteohub,2013-04-03 20:42:00,
2013-04-03 14:47:00,43.2,21.0,30.97,West,270,11.0,14.0,41,0.00,,,0.13,meteohub,2013-04-03 20:47:00,
2013-04-03 14:52:00,43.5,21.4,30.98,NW,315,12.0,14.0,41,0.00,,,0.13,meteohub,2013-04-03 20:52:00,
2013-04-03 14:57:00,43.5,20.8,30.98,NE,45,9.0,13.0,40,0.00,,,0.13,meteohub,2013-04-03 20:57:00,
2013-04-03 15:02:00,43.9,21.2,30.97,NNW,338,11.0,12.0,40,0.00,,,0.13,meteohub,2013-04-03 21:02:00,
2013-04-03 15:07:00,43.9,20.5,30.98,NW,315,8.0,12.0,39,0.00,,,0.13,meteohub,2013-04-03 21:07:00,
2013-04-03 15:12:00,43.9,21.2,30.98,West,270,11.0,16.0,40,0.00,,,0.13,meteohub,2013-04-03 21:12:00,
2013-04-03 15:17:00,43.9,21.7,30.97,North,0,8.0,16.0,41,0.00,,,0.13,meteohub,2013-04-03 21:17:00,
2013-04-03 15:22:00,43.9,21.7,30.97,North,0,11.0,16.0,41,0.00,,,0.13,meteohub,2013-04-03 21:22:00,
2013-04-03 15:27:00,44.1,21.9,30.98,North,0,9.0,14.0,41,0.00,,,0.13,meteohub,2013-04-03 21:27:00,
2013-04-03 15:32:00,44.1,21.2,30.97,North,0,8.0,14.0,40,0.00,,,0.13,meteohub,2013-04-03 21:32:00,
2013-04-03 15:37:00,44.4,21.6,30.97,SW,225,8.0,13.0,40,0.00,,,0.13,meteohub,2013-04-03 21:37:00,
2013-04-03 15:42:00,44.4,21.0,30.97,NE,45,13.0,13.0,39,0.00,,,0.13,meteohub,2013-04-03 21:42:00,
2013-04-03 15:47:00,44.6,20.5,30.98,WSW,248,8.0,13.0,38,0.00,,,0.13,meteohub,2013-04-03 21:47:00,
2013-04-03 15:52:00,44.6,20.5,30.98,North,0,8.0,13.0,38,0.00,,,0.13,meteohub,2013-04-03 21:52:00,
2013-04-03 15:57:00,45.0,19.6,30.98,NW,315,10.0,13.0,36,0.00,,,0.13,meteohub,2013-04-03 21:57:00,
2013-04-03 16:02:00,45.1,19.8,30.98,NW,315,11.0,12.0,36,0.00,,,0.13,meteohub,2013-04-03 22:02:00,
2013-04-03 16:07:00,45.1,19.8,30.97,South,180,10.0,12.0,36,0.00,,,0.13,meteohub,2013-04-03 22:07:00,
2013-04-03 16:12:00,45.3,18.7,30.97,North,0,7.0,11.0,34,0.00,,,0.13,meteohub,2013-04-03 22:12:00,
2013-04-03 16:17:00,45.3,17.2,30.97,NW,315,6.0,11.0,32,0.00,,,0.13,meteohub,2013-04-03 22:17:00,
2013-04-03 16:22:00,45.3,19.2,30.97,SE,135,8.0,14.0,35,0.00,,,0.13,meteohub,2013-04-03 22:22:00,
2013-04-03 16:27:00,45.3,19.2,30.97,NW,315,10.0,14.0,35,0.00,,,0.13,meteohub,2013-04-03 22:27:00,
2013-04-03 16:32:00,44.8,19.4,30.97,NW,315,10.0,14.0,36,0.00,,,0.13,meteohub,2013-04-03 22:32:00,
2013-04-03 16:37:00,44.6,19.9,30.97,North,0,9.0,13.0,37,0.00,,,0.13,meteohub,2013-04-03 22:37:00,
2013-04-03 16:42:00,44.6,18.7,30.97,NE,45,9.0,13.0,35,0.00,,,0.13,meteohub,2013-04-03 22:42:00,
2013-04-03 16:47:00,45.0,20.8,30.97,WNW,293,6.0,11.0,38,0.00,,,0.13,meteohub,2013-04-03 22:47:00,
2013-04-03 16:53:00,45.3,19.9,30.97,North,0,9.0,11.0,36,0.00,,,0.13,meteohub,2013-04-03 22:53:00,
2013-04-03 16:58:00,45.1,19.0,30.97,NE,45,5.0,10.0,35,0.00,,,0.13,meteohub,2013-04-03 22:58:00,
2013-04-03 17:03:00,45.3,18.7,30.97,NE,45,9.0,9.0,34,0.00,,,0.13,meteohub,2013-04-03 23:03:00,
2013-04-03 17:08:00,45.3,19.2,30.97,North,0,8.0,11.0,35,0.00,,,0.13,meteohub,2013-04-03 23:08:00,
2013-04-03 17:13:00,45.5,19.4,30.97,NE,45,6.0,11.0,35,0.00,,,0.13,meteohub,2013-04-03 23:13:00,
2013-04-03 17:18:00,45.3,17.2,30.97,NW,315,5.0,11.0,32,0.00,,,0.13,meteohub,2013-04-03 23:18:00,
2013-04-03 17:23:00,45.7,18.9,30.97,NW,315,4.0,10.0,34,0.00,,,0.13,meteohub,2013-04-03 23:23:00,
2013-04-03 17:28:00,45.7,18.1,30.97,NW,315,8.0,8.0,33,0.00,,,0.13,meteohub,2013-04-03 23:28:00,
2013-04-03 17:33:00,45.3,18.7,30.97,East,90,5.0,10.0,34,0.00,,,0.13,meteohub,2013-04-03 23:33:00,
2013-04-03 17:38:00,45.1,18.5,30.97,North,0,7.0,10.0,34,0.00,,,0.13,meteohub,2013-04-03 23:38:00,
2013-04-03 17:43:00,45.1,18.5,30.97,North,0,5.0,10.0,34,0.00,,,0.13,meteohub,2013-04-03 23:43:00,
2013-04-03 17:48:00,45.3,18.0,30.97,NW,315,7.0,8.0,33,0.00,,,0.13,meteohub,2013-04-03 23:48:00,
2013-04-03 17:53:00,45.1,16.3,30.97,North,0,4.0,8.0,31,0.00,,,0.13,meteohub,2013-04-03 23:53:00,
2013-04-03 17:58:00,45.1,16.3,30.97,West,270,6.0,8.0,31,0.00,,,0.13,meteohub,2013-04-03 23:58:00,
2013-04-03 18:03:00,45.0,16.2,30.97,North,0,6.0,8.0,31,0.00,,,0.13,meteohub,2013-04-04 00:03:00,
2013-04-03 18:08:00,45.0,16.9,30.97,NW,315,4.0,8.0,32,0.00,,,0.13,meteohub,2013-04-04 00:08:00,
2013-04-03 18:13:00,45.0,17.6,30.97,NW,315,5.0,8.0,33,0.00,,,0.13,meteohub,2013-04-04 00:13:00,
2013-04-03 18:18:00,44.8,17.4,30.97,North,0,4.0,6.0,33,0.00,,,0.13,meteohub,2013-04-04 00:18:00,
2013-04-03 18:23:00,44.6,17.2,30.97,North,0,3.0,11.0,33,0.00,,,0.13,meteohub,2013-04-04 00:23:00,
2013-04-03 18:28:00,44.4,17.8,30.97,West,270,6.0,11.0,34,0.00,,,0.13,meteohub,2013-04-04 00:28:00,
2013-04-03 22:09:00,28.6,17.2,31.04,NE,45,2.0,-999.0,62,-99.99,,,0.13,meteohub,2013-04-04 04:09:00,
2013-04-03 22:10:00,28.6,17.2,31.04,East,90,2.0,-999.0,62,-99.99,,,0.13,meteohub,2013-04-04 04:10:00,
2013-04-03 22:15:00,28.4,17.1,31.04,East,90,2.0,2.0,62,0.00,,,0.13,meteohub,2013-04-04 04:15:00,
2013-04-03 22:20:00,28.6,17.2,31.03,East,90,2.0,2.0,62,0.00,,,0.13,meteohub,2013-04-04 04:20:00,
2013-04-03 22:25:00,28.6,17.2,31.03,East,90,1.0,2.0,62,0.00,,,0.13,meteohub,2013-04-04 04:25:00,
2013-04-03 22:30:00,28.6,17.2,31.04,SE,135,2.0,2.0,62,0.00,,,0.13,meteohub,2013-04-04 04:30:00,
2013-04-03 22:35:00,28.6,17.2,31.04,SE,135,0.0,3.0,62,0.00,,,0.13,meteohub,2013-04-04 04:35:00,
2013-04-03 22:40:00,28.4,17.1,31.03,NE,45,2.0,3.0,62,0.00,,,0.13,meteohub,2013-04-04 04:40:00,
2013-04-03 22:45:00,28.2,15.3,31.04,NE,45,2.0,3.0,58,0.00,,,0.13,meteohub,2013-04-04 04:45:00,
2013-04-03 22:50:00,28.0,15.3,31.04,NE,45,0.0,3.0,58,0.00,,,0.13,meteohub,2013-04-04 04:50:00,
2013-04-03 22:55:00,27.9,15.1,31.04,South,180,2.0,2.0,58,0.00,,,0.13,meteohub,2013-04-04 04:55:00,
2013-04-03 23:00:00,27.5,14.7,31.04,South,180,2.0,2.0,58,0.00,,,0.13,meteohub,2013-04-04 05:00:00,
2013-04-03 23:05:00,27.1,14.4,31.04,East,90,2.0,2.0,58,0.00,,,0.13,meteohub,2013-04-04 05:05:00,
2013-04-03 23:10:00,27.1,14.7,31.04,NE,45,2.0,2.0,59,0.00,,,0.13,meteohub,2013-04-04 05:10:00,
2013-04-03 23:15:00,27.1,14.7,31.04,NE,45,4.0,4.0,59,0.00,,,0.13,meteohub,2013-04-04 05:15:00,
2013-04-03 23:20:00,26.8,14.4,31.04,East,90,3.0,4.0,59,0.00,,,0.13,meteohub,2013-04-04 05:20:00,
2013-04-03 23:25:00,27.0,14.5,31.04,NE,45,1.0,4.0,59,0.00,,,0.13,meteohub,2013-04-04 05:25:00,
2013-04-03 23:30:00,27.0,14.9,31.04,NE,45,2.0,4.0,60,0.00,,,0.13,meteohub,2013-04-04 05:30:00,
2013-04-03 23:36:00,26.8,14.7,31.04,East,90,1.0,3.0,60,0.00,,,0.13,meteohub,2013-04-04 05:36:00,
2013-04-03 23:41:00,26.8,14.4,31.03,SE,135,2.0,2.0,59,0.00,,,0.13,meteohub,2013-04-04 05:41:00,
2013-04-03 23:46:00,26.6,14.2,31.04,SE,135,0.0,2.0,59,0.00,,,0.13,meteohub,2013-04-04 05:46:00,
2013-04-03 23:51:00,26.2,14.2,31.04,SE,135,0.0,2.0,60,0.00,,,0.13,meteohub,2013-04-04 05:51:00,
2013-04-03 23:56:00,26.1,14.0,31.04,SE,135,2.0,2.0,60,0.00,,,0.13,meteohub,2013-04-04 05:56:00,